Regional Weather Roundup
Issued by NWS Cleveland, OH

Home | Current Version | Previous Version | Graphics & Text | Print | Product List | Glossary On
Versions: 1 2 3 4 5 6 7 8 9 10 11 12 13 14 15 16 17 18 19 20 21 22 23 24 25 26 27 28 29 30 31 32 33 34 35 36 37 38 39 40 41 42 43 44 45 46 47 48 49 50
000
ASUS41 KCLE 211710
RWRCLE
OHIO REGIONAL WEATHER ROUNDUP
NATIONAL WEATHER SERVICE WILMINGTON, OH
100 PM EDT FRI JUL 21 2017

NOTE: "FAIR" INDICATES FEW OR NO CLOUDS BELOW 12,000 FEET WITH NO
SIGNIFICANT WEATHER AND/OR OBSTRUCTIONS TO VISIBILITY.

OHZ001>008-015>018-024>027-034-035-043-044-211800-
   NORTHWEST OHIO

CITY           SKY/WX    TMP DP  RH WIND       PRES   REMARKS
DEFIANCE       FAIR     N/A N/A N/A VRB5      29.99R
FINDLAY        FAIR      84  71  65 E5        29.97F
TOLEDO EXPRESS FAIR      86  69  56 NE9       29.97F HX  90
TOLEDO EXEC    FAIR      84  72  67 E8        29.99S
LIMA           FAIR      80  73  79 NE6       29.99R
$$

OHZ009>014-019>023-028>033-038-089-211800-
   NORTHEAST OHIO

CITY           SKY/WX    TMP DP  RH WIND       PRES   REMARKS
CLE-HOPKINS    FAIR      88  71  57 NE3       30.00F HX  94
CLE-LAKEFRONT  FAIR      83  73  72 NW6       29.97F
CUY CO. ARPT   MOSUNNY   86  75  70 N8        30.00S HX  95
LORAIN-ELYRIA  FAIR      86  69  56 VRB5      29.99F HX  90
ASHTABULA      FAIR      83  72  69 NW6       29.99F
AKRON-CANTON   PTSUNNY   87  70  56 N6        30.00F HX  92
WOOSTER        FAIR      84  71  65 CALM      30.00F
MANSFIELD      FAIR      86  70  58 NW5       30.01S HX  90
YOUNGSTOWN     CLOUDY    86  69  56 W5        29.99F HX  90
$$

OHZ042-051>053-060>062-070>072-077>081-211800-
  SOUTHWEST OHIO

CITY           SKY/WX    TMP DP  RH WIND       PRES   REMARKS
CINC-COVINGTON PTSUNNY   80  75  84 S9        30.04S
CINC-LUNKEN    FAIR      78  74  87 SW10      30.03S
HAMILTON       FAIR      78  73  84 VRB5      30.04R
DAYTON         CLOUDY    75  70  84 SW15      30.04R
WRIGHT-PAT AFB CLOUDY    76  73  91 SW15      30.03R
DAYTON GENERAL FAIR      75  70  84 SW9       30.04R
WILMINGTON     FAIR      77  72  84 SW12      30.02F
$$

OHZ036-037-039>041-045>050-054>059-063>069-073>076-082>088-211800-
  CENTRAL AND SOUTHEAST OHIO

CITY           SKY/WX    TMP DP  RH WIND       PRES   REMARKS
COLUMBUS       CLOUDY    77  76  96 S9        29.99R FOG
OSU AIRPORT    FAIR      79  77  94 SE5       29.99R FOG
BOLTON FIELD   SUNNY     77  73  88 SW7       30.01R
RICKENBACK AFB FAIR      74  73  96 S12       30.00R
NEWARK         FAIR      75  72  90 SE5       29.98F
MARION         FAIR      85  71  63 NE7       29.98F HX  90
LANCASTER      PTSUNNY   74  74 100 S8        30.02R
ZANESVILLE     FAIR      76  72  87 S8        30.00R
NEW PHILLY     PTSUNNY   84  74  71 CALM      29.99F HX  91
$$




USA.gov is the U.S. government's official web portal to all federal, state and local government web resources and services.